HBH3339 ZBSJ-ZLIC

Flight info

Callsign HBH3339
Flight time 1h 13m
Altitude 34100
Route ADBES B215 APOGO W218 TUTGO W220 AGVEN
Aircraft B738/M-SDE2E3FGHIRWXY/LB1

Departure

Time 2026-05-04 22:47
Airport Shijiazhuang Zhengding International Airport (ZBSJ)

Arrival

Time 2026-05-05 00:01
Airport Yinchuan Hedong International Airport (ZLIC)
Time Latitude Longitude Altitude Speed Heading
2026-05-04 22:39 38.27772 114.69395 235 ft 0 kts 237°
2026-05-04 22:40 38.27773 114.69397 235 ft 3 kts 237°
2026-05-04 22:40 38.27782 114.69416 238 ft 4 kts 237°
2026-05-04 22:41 38.27797 114.69445 240 ft 4 kts 238°
2026-05-04 22:41 38.27807 114.69470 240 ft 2 kts 254°
2026-05-04 22:41 38.27808 114.69484 239 ft 2 kts 300°
2026-05-04 22:41 38.27798 114.69498 240 ft 2 kts 324°
2026-05-04 22:42 38.27796 114.69500 240 ft 0 kts 325°
2026-05-04 22:43 38.27797 114.69498 240 ft 2 kts 325°
2026-05-04 22:43 38.27830 114.69471 237 ft 10 kts 328°
2026-05-04 22:43 38.27913 114.69412 238 ft 17 kts 332°
2026-05-04 22:44 38.28044 114.69387 237 ft 23 kts 32°
2026-05-04 22:44 38.28168 114.69391 235 ft 24 kts 328°
2026-05-04 22:44 38.28320 114.69265 238 ft 26 kts 327°
2026-05-04 22:44 38.28467 114.69145 237 ft 25 kts 327°
2026-05-04 22:45 38.28609 114.69031 237 ft 23 kts 328°
2026-05-04 22:45 38.28914 114.68782 239 ft 30 kts 327°
2026-05-04 22:45 38.29095 114.68635 238 ft 32 kts 327°
2026-05-04 22:46 38.29243 114.68521 236 ft 18 kts 349°
2026-05-04 22:46 38.29327 114.68617 238 ft 17 kts 58°
2026-05-04 22:46 38.29325 114.68709 238 ft 7 kts 142°
2026-05-04 22:46 38.29264 114.68760 235 ft 23 kts 147°
2026-05-04 22:47 38.28919 114.69039 237 ft 93 kts 147°
2026-05-04 22:47 38.28191 114.69629 236 ft 152 kts 147°
2026-05-04 22:47 38.27198 114.70436 545 ft 177 kts 146°
2026-05-04 22:47 38.26177 114.71329 1335 ft 178 kts 148°
2026-05-04 22:48 38.25138 114.72219 2076 ft 184 kts 149°
2026-05-04 22:48 38.24314 114.73526 2677 ft 202 kts 108°
2026-05-04 22:48 38.24369 114.75297 3343 ft 210 kts 66°
2026-05-04 22:48 38.25295 114.76797 3758 ft 228 kts 34°
2026-05-04 22:49 38.26655 114.77992 4052 ft 245 kts 31°
2026-05-04 22:49 38.28091 114.79237 4619 ft 253 kts 32°
2026-05-04 22:49 38.29547 114.80522 5320 ft 256 kts 34°
2026-05-04 22:49 38.31028 114.81784 6100 ft 257 kts 25°
2026-05-04 22:50 38.32791 114.82320 6482 ft 273 kts 353°
2026-05-04 22:50 38.34624 114.81558 6814 ft 284 kts 326°
2026-05-04 22:50 38.36298 114.80234 7474 ft 290 kts 324°
2026-05-04 22:50 38.38037 114.78846 8268 ft 292 kts 325°
2026-05-04 22:51 38.39750 114.77500 9058 ft 295 kts 325°
2026-05-04 22:51 38.41520 114.76124 9826 ft 299 kts 326°
2026-05-04 22:51 38.43319 114.74731 10350 ft 311 kts 326°
2026-05-04 22:51 38.45236 114.73238 10522 ft 335 kts 326°
2026-05-04 22:52 38.47283 114.71643 10841 ft 351 kts 326°
2026-05-04 22:52 38.49391 114.70003 11483 ft 356 kts 326°
2026-05-04 22:52 38.51510 114.68360 12293 ft 356 kts 326°
2026-05-04 22:52 38.53631 114.66729 13096 ft 357 kts 326°
2026-05-04 22:53 38.55763 114.65088 13834 ft 359 kts 327°
2026-05-04 22:53 38.57870 114.63373 14498 ft 359 kts 319°
2026-05-04 22:53 38.59490 114.60970 15163 ft 358 kts 298°
2026-05-04 22:53 38.60334 114.57985 15827 ft 360 kts 279°
2026-05-04 22:54 38.60360 114.54777 16436 ft 365 kts 262°
2026-05-04 22:54 38.59572 114.51659 16996 ft 373 kts 248°
2026-05-04 22:54 38.58477 114.48636 17570 ft 378 kts 247°
2026-05-04 22:54 38.57348 114.45573 18115 ft 382 kts 248°
2026-05-04 22:55 38.56218 114.42486 18625 ft 386 kts 247°
2026-05-04 22:55 38.55086 114.39411 19162 ft 388 kts 247°
2026-05-04 22:55 38.53922 114.36251 19700 ft 391 kts 247°
2026-05-04 22:55 38.52760 114.33093 20220 ft 393 kts 248°
2026-05-04 22:56 38.51593 114.29918 20726 ft 396 kts 248°
2026-05-04 22:56 38.50433 114.26762 21210 ft 399 kts 248°
2026-05-04 22:56 38.49248 114.23541 21699 ft 402 kts 247°
2026-05-04 22:56 38.48054 114.20297 22184 ft 405 kts 247°
2026-05-04 22:57 38.46847 114.17020 22659 ft 408 kts 247°
2026-05-04 22:57 38.45635 114.13734 23126 ft 411 kts 247°
2026-05-04 22:57 38.44409 114.10414 23556 ft 414 kts 247°
2026-05-04 22:57 38.43177 114.07080 23946 ft 417 kts 247°
2026-05-04 22:58 38.41935 114.03726 24348 ft 419 kts 247°
2026-05-04 22:58 38.40692 114.00352 24731 ft 421 kts 247°
2026-05-04 22:58 38.39447 113.96955 25116 ft 423 kts 248°
2026-05-04 22:58 38.38199 113.93550 25497 ft 425 kts 248°
2026-05-04 22:59 38.36946 113.90134 25871 ft 428 kts 247°
2026-05-04 22:59 38.35679 113.86687 26258 ft 430 kts 247°
2026-05-04 22:59 38.34416 113.83259 26601 ft 432 kts 247°
2026-05-04 22:59 38.33131 113.79795 26961 ft 434 kts 247°
2026-05-04 23:00 38.31820 113.76311 27303 ft 436 kts 246°
2026-05-04 23:00 38.30504 113.72829 27650 ft 438 kts 246°
2026-05-04 23:00 38.29176 113.69325 27991 ft 440 kts 246°
2026-05-04 23:00 38.27843 113.65803 28308 ft 442 kts 246°
2026-05-04 23:01 38.26501 113.62261 28615 ft 445 kts 246°
2026-05-04 23:01 38.25153 113.58703 28972 ft 446 kts 246°
2026-05-04 23:01 38.23811 113.55164 29449 ft 444 kts 246°
2026-05-04 23:01 38.22487 113.51674 29942 ft 442 kts 246°
2026-05-04 23:02 38.21150 113.48156 30326 ft 441 kts 246°
2026-05-04 23:02 38.19814 113.44641 30652 ft 440 kts 246°
2026-05-04 23:02 38.18485 113.41146 30998 ft 440 kts 246°
2026-05-04 23:02 38.17148 113.37641 31362 ft 439 kts 246°
2026-05-04 23:03 38.15824 113.34154 31719 ft 437 kts 247°
2026-05-04 23:03 38.14519 113.30671 32033 ft 437 kts 247°
2026-05-04 23:03 38.13220 113.27176 32349 ft 437 kts 247°
2026-05-04 23:03 38.11924 113.23688 32687 ft 436 kts 247°
2026-05-04 23:04 38.10647 113.20256 33008 ft 435 kts 247°
2026-05-04 23:04 38.09353 113.16788 33310 ft 434 kts 247°
2026-05-04 23:04 38.08061 113.13332 33635 ft 434 kts 247°
2026-05-04 23:04 38.06767 113.09875 33950 ft 433 kts 248°
2026-05-04 23:05 38.04156 113.02915 33994 ft 438 kts 247°
2026-05-04 23:05 38.01537 112.95955 33982 ft 434 kts 247°
2026-05-04 23:06 37.98949 112.89096 34002 ft 431 kts 248°
2026-05-04 23:06 37.96372 112.82273 34003 ft 431 kts 247°
2026-05-04 23:07 37.93781 112.75431 34007 ft 431 kts 247°
2026-05-04 23:07 37.91178 112.68568 34016 ft 432 kts 247°
2026-05-04 23:08 37.88571 112.61712 34016 ft 433 kts 247°
2026-05-04 23:08 37.85889 112.54925 34005 ft 435 kts 245°
2026-05-04 23:09 37.82970 112.48213 34008 ft 435 kts 244°
2026-05-04 23:09 37.80078 112.41482 34007 ft 436 kts 245°
2026-05-04 23:10 37.78022 112.34378 34007 ft 428 kts 264°
2026-05-04 23:10 37.77796 112.30651 34003 ft 424 kts 275°
2026-05-04 23:10 37.78081 112.26941 34012 ft 422 kts 279°
2026-05-04 23:11 37.78866 112.19570 34003 ft 423 kts 280°
2026-05-04 23:11 37.79630 112.12230 34001 ft 424 kts 279°
2026-05-04 23:12 37.80357 112.04829 33995 ft 424 kts 279°
2026-05-04 23:12 37.81066 111.97410 33999 ft 424 kts 279°
2026-05-04 23:13 37.81771 111.89989 34002 ft 424 kts 279°
2026-05-04 23:13 37.82470 111.82586 33995 ft 424 kts 279°
2026-05-04 23:14 37.83162 111.75230 33999 ft 423 kts 279°
2026-05-04 23:14 37.83880 111.67835 33990 ft 423 kts 280°
2026-05-04 23:15 37.84681 111.60479 33992 ft 421 kts 281°
2026-05-04 23:15 37.85471 111.53135 33992 ft 421 kts 280°
2026-05-04 23:16 37.86209 111.45773 33976 ft 420 kts 279°
2026-05-04 23:16 37.86839 111.38476 33984 ft 420 kts 279°
2026-05-04 23:17 37.87464 111.31119 33974 ft 420 kts 279°
2026-05-04 23:17 37.88095 111.23772 33966 ft 420 kts 279°
2026-05-04 23:18 37.88726 111.16431 33961 ft 419 kts 279°
2026-05-04 23:18 37.89354 111.09085 33948 ft 420 kts 279°
2026-05-04 23:19 37.89975 111.01760 33949 ft 419 kts 279°
2026-05-04 23:19 37.90590 110.94453 33942 ft 419 kts 279°
2026-05-04 23:20 37.91204 110.87098 33939 ft 419 kts 279°
2026-05-04 23:20 37.91812 110.79771 33936 ft 419 kts 279°
2026-05-04 23:21 37.92416 110.72435 33932 ft 419 kts 279°
2026-05-04 23:21 37.93570 110.65242 33929 ft 413 kts 292°
2026-05-04 23:22 37.96076 110.58766 33925 ft 409 kts 301°
2026-05-04 23:22 37.98793 110.52464 33916 ft 409 kts 301°
2026-05-04 23:23 38.01502 110.46120 33918 ft 409 kts 301°
2026-05-04 23:23 38.04192 110.39756 33915 ft 409 kts 301°
2026-05-04 23:24 38.06870 110.33379 33920 ft 409 kts 301°
2026-05-04 23:24 38.09542 110.27003 33918 ft 408 kts 301°
2026-05-04 23:25 38.12209 110.20627 33909 ft 408 kts 301°
2026-05-04 23:25 38.14849 110.14303 33920 ft 408 kts 301°
2026-05-04 23:26 38.17504 110.07930 33911 ft 407 kts 301°
2026-05-04 23:26 38.20146 110.01574 33909 ft 406 kts 301°
2026-05-04 23:27 38.22783 109.95220 33906 ft 405 kts 302°
2026-05-04 23:27 38.25388 109.88929 33907 ft 404 kts 302°
2026-05-04 23:28 38.27999 109.82610 33903 ft 403 kts 302°
2026-05-04 23:28 38.30600 109.76305 33899 ft 402 kts 302°
2026-05-04 23:29 38.32759 109.71060 33901 ft 401 kts 302°
2026-05-04 23:29 38.35343 109.64771 33897 ft 400 kts 302°
2026-05-04 23:30 38.38336 109.57470 33894 ft 400 kts 302°
2026-05-04 23:30 38.40428 109.52080 33910 ft 409 kts 301°
2026-05-04 23:31 38.42915 109.45454 33907 ft 418 kts 301°
2026-05-04 23:31 38.45433 109.38737 33907 ft 426 kts 301°
2026-05-04 23:32 38.48005 109.31893 33888 ft 427 kts 301°
2026-05-04 23:32 38.50569 109.25070 33887 ft 427 kts 301°
2026-05-04 23:33 38.53140 109.18221 33889 ft 426 kts 301°
2026-05-04 23:33 38.55695 109.11397 33889 ft 425 kts 301°
2026-05-04 23:34 38.58243 109.04579 33889 ft 424 kts 301°
2026-05-04 23:34 38.60757 108.97836 33890 ft 423 kts 301°
2026-05-04 23:35 38.63283 108.91046 33884 ft 421 kts 300°
2026-05-04 23:35 38.65793 108.84285 33884 ft 421 kts 300°
2026-05-04 23:36 38.68299 108.77518 33880 ft 420 kts 300°
2026-05-04 23:36 38.70793 108.70779 33884 ft 419 kts 300°
2026-05-04 23:37 38.73327 108.64071 33881 ft 418 kts 301°
2026-05-04 23:37 38.75853 108.57417 33878 ft 417 kts 301°
2026-05-04 23:38 38.78383 108.50721 33880 ft 417 kts 300°
2026-05-04 23:38 38.80906 108.44021 33874 ft 417 kts 300°
2026-05-04 23:39 38.83419 108.37326 33873 ft 416 kts 300°
2026-05-04 23:39 38.85926 108.30634 33873 ft 416 kts 300°
2026-05-04 23:40 38.88430 108.23933 33870 ft 416 kts 300°
2026-05-04 23:40 38.90924 108.17246 33866 ft 415 kts 299°
2026-05-04 23:41 38.93396 108.10603 33864 ft 415 kts 299°
2026-05-04 23:41 38.95875 108.03924 33860 ft 414 kts 299°
2026-05-04 23:42 38.98355 107.97230 33862 ft 413 kts 299°
2026-05-04 23:42 38.99588 107.93891 33608 ft 417 kts 298°
2026-05-04 23:42 39.00783 107.90479 33041 ft 418 kts 297°
2026-05-04 23:43 39.01942 107.87038 32292 ft 418 kts 296°
2026-05-04 23:43 39.03086 107.83605 31552 ft 419 kts 296°
2026-05-04 23:43 39.04241 107.80147 30823 ft 421 kts 295°
2026-05-04 23:43 39.05404 107.76682 30066 ft 423 kts 295°
2026-05-04 23:44 39.06580 107.73191 29155 ft 427 kts 295°
2026-05-04 23:44 39.07770 107.69661 28264 ft 429 kts 295°
2026-05-04 23:44 39.08944 107.66176 27421 ft 431 kts 295°
2026-05-04 23:44 39.10175 107.62650 26502 ft 433 kts 295°
2026-05-04 23:45 39.11448 107.59122 25639 ft 435 kts 295°
2026-05-04 23:45 39.12717 107.55608 25024 ft 431 kts 295°
2026-05-04 23:45 39.13963 107.52131 24382 ft 428 kts 295°
2026-05-04 23:45 39.15101 107.48569 23714 ft 427 kts 285°
2026-05-04 23:46 39.15445 107.44789 23051 ft 426 kts 269°
2026-05-04 23:46 39.15022 107.41021 22346 ft 425 kts 257°
2026-05-04 23:46 39.13938 107.37476 21682 ft 426 kts 242°
2026-05-04 23:46 39.12286 107.34329 21076 ft 423 kts 236°
2026-05-04 23:47 39.10545 107.31284 20437 ft 421 kts 236°
2026-05-04 23:47 39.08832 107.28251 19804 ft 418 kts 237°
2026-05-04 23:47 39.07144 107.25216 19187 ft 415 kts 237°
2026-05-04 23:47 39.05479 107.22194 18571 ft 413 kts 237°
2026-05-04 23:48 39.03825 107.19180 17918 ft 412 kts 237°
2026-05-04 23:48 39.02179 107.16179 17230 ft 409 kts 237°
2026-05-04 23:48 39.00561 107.13231 16589 ft 406 kts 237°
2026-05-04 23:48 38.98932 107.10268 15950 ft 404 kts 237°
2026-05-04 23:49 38.97318 107.07338 15348 ft 400 kts 236°
2026-05-04 23:49 38.95715 107.04432 14752 ft 397 kts 236°
2026-05-04 23:49 38.94111 107.01559 14143 ft 395 kts 236°
2026-05-04 23:49 38.92496 106.98703 13523 ft 393 kts 235°
2026-05-04 23:50 38.90890 106.95872 12854 ft 391 kts 235°
2026-05-04 23:50 38.89290 106.93055 12231 ft 389 kts 235°
2026-05-04 23:50 38.87705 106.90262 11667 ft 385 kts 235°
2026-05-04 23:50 38.86160 106.87538 11515 ft 370 kts 235°
2026-05-04 23:51 38.84671 106.84915 11344 ft 357 kts 235°
2026-05-04 23:51 38.83238 106.82390 11260 ft 343 kts 235°
2026-05-04 23:51 38.81861 106.79963 11247 ft 329 kts 235°
2026-05-04 23:51 38.80538 106.77635 11145 ft 318 kts 235°
2026-05-04 23:52 38.79252 106.75375 11029 ft 308 kts 235°
2026-05-04 23:52 38.78009 106.73192 10905 ft 300 kts 235°
2026-05-04 23:52 38.76637 106.71263 10752 ft 294 kts 217°
2026-05-04 23:52 38.74905 106.69913 10602 ft 289 kts 211°
2026-05-04 23:53 38.73164 106.68680 10451 ft 282 kts 211°
2026-05-04 23:53 38.71466 106.67480 10336 ft 275 kts 211°
2026-05-04 23:53 38.69816 106.66304 10215 ft 268 kts 211°
2026-05-04 23:53 38.68215 106.65152 10106 ft 261 kts 211°
2026-05-04 23:54 38.66648 106.64023 9999 ft 254 kts 211°
2026-05-04 23:54 38.65118 106.62917 9765 ft 253 kts 211°
2026-05-04 23:54 38.63585 106.61809 9518 ft 252 kts 211°
2026-05-04 23:54 38.62059 106.60707 9257 ft 252 kts 211°
2026-05-04 23:55 38.60533 106.59607 8985 ft 251 kts 211°
2026-05-04 23:55 38.59017 106.58515 8714 ft 251 kts 211°
2026-05-04 23:55 38.55962 106.56315 8191 ft 252 kts 211°
2026-05-04 23:56 38.54436 106.55217 7909 ft 253 kts 211°
2026-05-04 23:56 38.52902 106.54133 7741 ft 248 kts 210°
2026-05-04 23:56 38.51417 106.53105 7527 ft 241 kts 211°
2026-05-04 23:56 38.49963 106.52071 7240 ft 235 kts 211°
2026-05-04 23:57 38.48557 106.51062 6948 ft 229 kts 211°
2026-05-04 23:57 38.47181 106.50072 6643 ft 225 kts 211°
2026-05-04 23:57 38.45819 106.49092 6362 ft 223 kts 211°
2026-05-04 23:57 38.44513 106.48145 6107 ft 216 kts 211°
2026-05-04 23:58 38.43210 106.47208 5813 ft 215 kts 210°
2026-05-04 23:58 38.41939 106.46294 5592 ft 204 kts 210°
2026-05-04 23:58 38.40718 106.45416 5270 ft 196 kts 210°
2026-05-04 23:58 38.39573 106.44587 5062 ft 185 kts 210°
2026-05-04 23:59 38.38484 106.43804 4828 ft 175 kts 210°
2026-05-04 23:59 38.37453 106.43060 4596 ft 167 kts 209°
2026-05-04 23:59 38.36451 106.42338 4368 ft 165 kts 209°
2026-05-04 23:59 38.35444 106.41613 4170 ft 167 kts 209°
2026-05-05 00:00 38.34428 106.40883 3937 ft 167 kts 208°
2026-05-05 00:00 38.34103 106.40650 3879 ft 166 kts 209°
2026-05-05 00:00 38.32528 106.39522 3731 ft 130 kts 210°
2026-05-05 00:00 38.31870 106.39049 3732 ft 88 kts 209°
2026-05-05 00:01 38.31505 106.38790 3732 ft 48 kts 209°
2026-05-05 00:01 38.31303 106.38643 3728 ft 19 kts 220°
2026-05-05 00:01 38.31328 106.38494 3729 ft 18 kts 301°
2026-05-05 00:01 38.31439 106.38500 3730 ft 18 kts 27°
2026-05-05 00:02 38.31550 106.38549 3731 ft 17 kts 335°
2026-05-05 00:02 38.31615 106.38426 3730 ft 17 kts 298°
2026-05-05 00:02 38.31685 106.38319 3730 ft 16 kts 346°
2026-05-05 00:02 38.31755 106.38319 3731 ft 0 kts